GEFSSE_500_meanwind_150.txt.gz
Wind_Speed
1 0 1 0 0 0 0 1 2 3 4 4 4 5 6 7 7 8 7 7 7 8 9 9 10 10 10 10 10 10 10 9 8 8 6 6 6 5 5 5 4 4 4
1 1 1 1 0 1 1 2 3 3 4 5 5 6 6 7 8 8 8 8 8 9 9 9 10 10 10 10 10 10 10 10 9 8 7 7 6 6 6 6 5 4 5
2 2 2 2 1 1 1 2 2 3 4 5 6 6 7 8 8 8 8 9 9 9 10 10 10 10 10 11 10 10 10 10 10 10 9 8 7 7 7 6 5 5 6
2 2 2 2 1 1 1 2 2 2 4 5 6 7 7 8 9 9 9 10 10 9 10 10 10 10 10 11 10 10 10 9 10 10 9 9 8 8 8 7 6 6 6
3 3 3 3 2 1 1 2 3 3 4 5 6 7 8 8 9 9 10 10 10 10 10 10 11 10 10 11 10 10 10 10 9 9 10 9 9 9 9 8 7 7 7
3 3 3 3 2 2 1 2 3 3 4 5 6 7 8 9 9 10 10 10 10 10 11 11 11 11 11 11 11 11 11 10 10 9 9 10 10 10 10 9 9 8 8
4 4 4 3 2 2 2 2 2 3 4 5 6 7 9 9 10 10 10 10 11 11 11 12 12 12 11 11 11 11 11 11 11 10 10 9 10 11 11 10 10 10 10
5 4 4 3 2 2 1 2 2 3 4 5 6 8 9 9 10 10 10 11 11 11 12 12 13 12 12 12 12 11 12 12 11 11 11 10 10 11 11 11 11 11 11
5 5 4 3 2 2 1 2 2 3 4 5 7 8 8 9 9 9 10 11 11 12 12 12 12 12 12 12 12 11 11 12 12 11 11 11 11 11 11 11 12 11 12
6 5 4 3 3 2 2 2 2 3 4 6 7 7 8 8 9 10 10 11 12 12 12 12 12 12 12 12 11 11 10 10 11 12 12 12 12 12 12 12 12 12 12
6 5 4 3 3 2 2 2 2 3 4 5 7 7 8 9 10 10 11 12 12 12 12 12 11 11 11 11 11 11 11 10 10 12 12 12 12 12 13 12 12 13 13
6 5 4 4 3 2 2 3 3 4 5 6 7 8 9 10 10 11 11 12 12 12 12 12 11 10 10 10 10 10 10 10 10 11 11 12 13 13 13 13 13 13 14
6 6 5 4 3 3 3 3 3 4 5 6 7 8 10 10 10 11 12 12 12 12 12 11 11 10 9 9 9 9 9 10 10 10 11 11 12 12 13 14 14 13 13
7 6 5 4 3 3 4 4 4 4 5 7 8 8 10 10 11 11 12 12 12 12 11 10 10 9 9 9 8 8 8 9 10 10 11 11 12 12 13 14 14 14 14
7 6 5 5 4 4 4 4 4 5 5 6 7 8 10 11 11 12 12 12 12 12 11 11 10 9 9 8 7 7 8 8 9 10 11 12 12 13 13 14 15 15 15
8 7 6 5 5 4 4 4 4 5 5 6 8 9 10 11 11 11 12 12 12 12 11 10 10 9 8 7 7 7 7 8 9 10 11 12 13 14 14 14 14 15 16
9 8 7 6 5 5 5 5 5 5 6 7 8 9 10 10 11 11 12 12 12 12 11 10 9 9 8 7 7 6 6 7 8 9 11 12 12 14 14 14 15 15 15
9 8 7 6 5 5 5 5 5 6 6 7 8 8 9 10 11 11 11 12 12 12 11 10 9 8 8 7 7 6 6 7 7 9 10 11 12 13 14 15 15 15 15
10 9 8 6 6 5 5 5 6 6 6 6 7 8 9 10 11 11 11 12 12 12 11 10 9 8 8 7 7 6 6 6 7 8 9 10 10 12 13 15 15 15 16
10 9 8 7 6 5 5 5 5 5 5 6 7 7 9 10 10 11 11 11 11 11 11 10 10 9 8 7 7 6 5 5 6 7 8 9 10 11 13 14 15 15 15
10 9 8 7 5 4 4 4 4 4 5 5 6 7 9 10 10 11 11 11 11 11 11 11 10 10 9 7 7 6 5 5 5 6 6 8 9 10 12 13 15 16 15
10 9 8 6 5 4 3 3 3 4 5 5 6 7 9 9 10 10 11 11 11 11 11 11 11 10 10 8 7 6 6 5 5 5 6 7 8 10 11 12 14 15 16
10 9 8 6 5 4 3 2 3 3 4 5 6 7 8 9 10 10 11 10 10 11 12 12 11 11 10 9 8 7 6 6 5 5 5 6 8 9 10 12 13 15 16
10 9 8 6 5 3 3 3 3 3 4 5 6 7 8 9 10 10 11 11 11 12 12 12 12 11 10 9 9 8 7 6 5 5 5 5 7 9 10 11 13 15 17
10 9 8 6 5 4 3 4 3 4 4 5 6 7 8 9 9 10 11 11 12 12 12 13 12 12 11 10 9 8 7 6 5 4 4 4 5 7 9 11 12 14 16
11 9 8 7 5 4 4 4 3 3 4 5 6 7 8 8 9 10 11 11 12 12 12 13 13 12 12 11 10 9 8 7 6 5 3 3 4 6 7 9 11 13 14

GEFSSE_500_meanwind_156.txt.gz
Wind_Speed
4 4 4 5 4 2 2 2 2 1 1 1 2 2 3 3 3 4 4 4 4 4 3 3 4 4 4 4 4 5 6 6 6 6 6 6 6 6 6 6 6 6 6
4 4 4 5 4 3 2 2 1 1 1 1 2 2 3 3 3 4 4 4 4 4 4 4 4 4 4 5 5 5 6 6 7 7 7 7 7 7 7 6 6 7 7
4 4 5 5 4 3 2 2 1 1 1 2 2 3 4 4 4 4 4 4 5 5 5 5 5 5 5 5 6 6 6 6 7 8 8 8 8 8 8 7 7 8 8
5 5 5 4 3 2 1 1 1 0 2 3 3 3 4 5 5 6 6 5 5 5 5 5 6 6 6 6 6 7 7 7 7 8 8 8 9 9 9 9 8 9 9
5 5 5 4 3 2 2 1 0 1 1 3 4 4 5 5 6 6 6 6 6 6 6 6 6 6 7 7 7 7 8 8 8 8 9 9 9 10 10 10 10 9 10
6 6 5 4 3 2 2 1 1 0 2 3 4 5 5 6 7 7 7 7 7 7 7 7 7 7 7 8 8 8 8 9 9 10 9 9 10 10 11 11 11 11 11
7 6 6 5 3 3 3 2 1 1 2 3 4 5 6 7 7 8 8 8 8 8 8 7 7 7 8 8 8 8 9 9 10 10 10 10 10 11 11 12 12 12 12
7 7 6 5 4 3 3 3 2 2 3 4 5 6 6 7 8 8 8 8 8 9 9 8 8 8 8 8 8 9 9 9 10 11 11 11 11 11 12 12 13 13 14
8 7 6 5 4 4 3 3 2 2 3 4 5 6 7 7 8 8 8 9 9 9 9 9 9 8 8 8 8 9 9 10 11 11 12 12 12 12 12 13 13 14 14
9 8 7 6 5 4 4 3 3 3 4 5 6 6 7 7 8 8 9 9 10 10 10 9 9 8 8 8 8 8 9 10 10 11 12 13 13 13 13 13 13 14 14
9 8 7 6 5 5 4 3 3 3 4 5 6 7 7 7 8 8 9 10 10 10 9 9 8 7 7 7 8 8 9 9 10 11 12 12 13 13 13 14 14 14 14
9 8 7 6 6 5 4 3 3 4 5 5 6 6 7 8 8 9 10 10 10 10 9 8 8 7 7 7 7 7 8 9 9 10 12 12 12 13 13 13 14 15 16
9 9 8 6 6 5 4 4 4 4 5 6 6 7 7 8 9 9 10 10 10 10 9 8 7 7 6 6 6 7 7 8 9 10 11 12 12 13 14 14 14 15 15
9 9 8 7 6 5 4 4 4 5 5 6 7 7 8 9 9 9 10 10 10 10 9 8 7 6 6 6 6 6 7 8 9 9 10 11 12 12 13 14 14 15 15
9 9 8 7 6 5 4 4 4 5 6 7 7 7 8 9 9 10 10 11 11 10 9 8 7 6 6 6 6 6 6 7 8 9 10 11 12 12 13 14 15 15 16
10 9 9 7 6 5 5 4 4 5 6 7 7 8 8 9 9 10 10 11 11 10 9 8 6 6 5 5 5 6 6 7 7 9 9 10 11 12 13 14 15 15 16
11 10 9 7 6 5 4 4 4 5 6 7 7 7 8 8 9 9 10 10 11 10 8 7 6 6 5 5 5 5 6 6 7 8 9 10 11 12 13 14 15 15 15
11 10 9 8 6 5 4 4 4 5 6 6 6 7 7 8 8 9 9 10 10 9 8 7 6 6 5 4 4 5 5 5 6 7 9 10 11 13 13 14 14 15 15
11 10 9 8 6 5 4 4 4 4 5 5 5 6 7 7 8 8 9 9 9 9 8 7 6 5 5 4 4 4 4 4 5 7 8 9 10 12 13 14 14 15 15
11 11 9 7 6 5 4 4 4 4 4 4 5 6 6 7 7 8 8 8 9 8 8 7 6 6 5 4 4 3 3 4 5 6 7 9 10 11 13 14 15 15 16
10 10 9 7 7 6 5 5 4 4 3 4 4 5 5 6 6 7 8 8 9 8 8 7 6 6 5 4 4 3 3 4 4 5 6 8 9 10 12 13 14 15 16
11 10 9 8 7 6 6 5 4 3 3 3 3 4 5 6 6 7 8 8 8 8 8 8 7 6 5 5 4 3 3 3 3 4 5 6 7 9 11 12 13 15 15
12 10 10 8 7 6 6 5 4 3 3 3 3 4 4 5 6 7 8 8 9 9 8 8 7 7 6 5 5 4 3 3 3 3 4 5 6 7 9 10 12 13 15
12 11 10 9 7 6 6 5 3 2 2 2 3 3 4 5 6 6 7 8 9 9 9 9 8 7 7 6 5 4 4 3 3 3 3 4 5 6 8 9 11 12 14
12 11 10 9 8 7 6 5 4 2 2 2 2 3 4 5 6 6 7 8 8 8 9 9 8 8 7 7 6 5 4 4 3 3 2 2 3 5 6 7 10 11 13
13 12 10 9 8 7 7 6 4 3 2 2 2 2 3 5 6 6 7 7 8 8 8 8 8 8 8 7 7 6 5 4 4 3 2 2 2 3 4 6 7 9 12

GEFSSE_500_meanwind_162.txt.gz
Wind_Speed
5 4 5 5 4 3 2 1 0 1 1 2 3 3 3 3 3 2 3 3 3 3 3 3 3 3 4 4 4 5 5 5 6 6 6 6 6 6 6 6 6 6 6
5 5 5 4 3 3 2 1 1 1 1 2 3 3 3 4 3 4 3 3 4 3 3 4 4 4 4 4 5 5 5 5 6 6 7 7 7 7 7 6 6 7 7
5 5 5 5 3 3 2 1 1 1 1 2 2 3 3 4 4 4 4 4 4 4 4 5 5 5 5 5 5 6 6 6 6 6 7 7 8 8 8 8 7 7 7
6 5 5 5 4 3 2 1 0 1 2 2 3 3 4 4 5 5 5 5 5 5 5 5 5 5 5 6 6 6 7 7 7 7 8 8 9 9 9 9 9 8 8
6 6 5 5 4 3 2 1 0 1 2 3 3 4 5 5 6 6 6 6 6 6 6 5 6 6 6 7 7 7 7 7 8 9 9 8 9 10 9 9 9 9 9
7 6 6 5 4 3 2 1 0 2 2 3 3 5 6 6 7 7 7 7 7 6 6 6 6 7 7 7 7 8 8 8 9 9 9 8 9 10 10 10 9 9 9
8 7 6 4 4 3 2 1 1 2 2 3 4 6 7 7 7 8 8 8 8 8 7 7 7 7 7 7 8 8 9 9 9 9 9 9 9 10 11 10 10 9 9
8 7 6 5 4 3 2 2 1 2 3 4 5 6 7 7 8 8 8 9 9 8 8 7 7 7 7 8 8 8 9 9 9 9 9 9 9 10 11 10 11 11 10
8 7 6 5 4 3 2 1 1 2 3 5 6 7 7 8 8 8 9 9 9 8 8 7 7 7 7 7 8 8 8 9 9 10 10 10 10 10 11 11 11 12 11
9 8 6 5 4 3 2 1 2 3 4 5 6 7 7 8 8 8 9 9 9 8 8 7 6 6 6 7 7 8 8 9 9 10 10 10 11 11 11 11 11 12 12
9 8 7 5 5 4 2 2 3 4 5 6 6 7 8 8 8 9 9 9 9 9 8 7 6 6 6 7 7 8 8 8 9 9 10 10 11 11 11 12 12 12 12
9 8 7 6 5 4 3 2 3 4 5 6 6 7 8 8 8 9 9 9 9 9 8 7 7 7 7 7 8 8 9 8 8 8 9 10 10 11 11 12 12 12 12
9 9 8 7 6 4 3 3 3 4 5 5 6 7 8 9 9 9 10 9 9 9 8 8 7 7 7 7 7 7 8 8 8 8 8 9 10 10 10 11 12 13 13
9 9 8 7 6 4 3 3 4 4 5 6 7 8 8 9 9 9 9 9 9 9 8 8 7 7 6 6 6 7 7 8 8 8 8 9 9 9 10 11 12 13 13
9 8 8 6 5 4 3 3 4 4 5 6 7 8 8 8 9 9 9 9 9 9 8 8 7 6 5 5 5 6 6 7 7 8 8 8 9 9 9 10 11 12 13
9 8 7 5 5 4 4 4 4 4 5 6 7 8 8 8 9 9 9 10 9 9 8 7 6 6 5 5 4 5 5 6 6 7 8 8 8 8 9 10 11 12 13
10 9 7 5 4 4 4 4 4 4 5 6 7 8 8 8 9 9 9 10 10 9 8 7 7 6 5 4 4 4 4 4 5 6 7 7 8 8 9 9 10 11 12
9 9 8 6 5 4 4 3 3 4 5 6 7 8 8 8 9 9 9 9 10 9 8 7 7 6 5 4 3 3 3 3 4 5 6 7 8 8 9 9 9 10 11
9 8 7 6 5 4 3 3 3 4 5 6 6 7 7 8 8 9 9 9 9 9 9 8 7 6 5 3 2 2 2 3 4 4 5 6 7 7 8 9 9 10 10
10 9 8 7 6 4 3 3 3 4 4 5 6 7 7 8 8 8 8 9 9 9 9 8 7 6 4 3 2 2 2 2 3 4 4 5 6 7 8 9 9 9 10
10 10 8 8 6 5 4 3 3 3 4 4 5 6 7 7 8 8 8 8 8 8 8 8 7 6 4 3 3 2 2 2 3 4 4 5 5 6 7 8 9 10 11
10 9 8 7 6 5 3 3 3 3 3 4 5 5 6 7 7 7 8 8 8 8 7 7 7 7 5 3 3 3 2 2 2 3 4 4 5 5 6 8 9 10 10
10 9 8 7 6 5 4 3 3 3 3 4 4 5 5 6 6 7 7 7 8 7 7 7 7 7 6 5 4 4 3 2 2 2 3 3 4 4 6 7 8 9 10
10 9 8 7 6 6 6 5 4 3 3 3 4 4 5 6 6 6 7 7 8 7 7 7 7 7 6 5 5 5 4 3 3 3 2 2 3 4 5 6 8 9 9
11 10 9 8 7 6 6 6 4 3 3 3 3 3 4 5 6 6 7 7 7 7 7 7 7 7 7 7 6 6 5 4 4 3 3 2 3 3 4 5 6 7 7
12 11 10 9 7 6 6 6 5 4 4 3 3 3 3 4 5 5 6 6 6 7 7 7 7 7 7 7 7 7 6 5 5 4 4 4 3 3 4 4 5 6 6

GEFSSE_500_meanwind_168.txt.gz
Wind_Speed
6 6 5 5 4 3 2 2 1 1 2 2 2 3 3 2 2 3 3 4 4 3 3 3 3 3 4 4 4 4 5 5 6 6 7 7 8 8 8 8 7 8 7
7 6 5 5 4 3 3 1 0 1 1 2 2 2 2 3 3 3 4 4 4 4 4 4 4 4 5 5 5 5 5 5 6 7 7 8 8 8 8 8 8 8 8
7 5 5 5 4 3 3 1 1 1 1 2 2 2 3 3 3 4 4 4 5 5 5 5 5 5 5 5 6 5 5 5 6 7 7 8 8 8 8 9 8 8 8
6 6 5 5 4 4 3 2 1 1 1 2 2 2 3 4 4 4 4 5 5 5 5 6 7 6 6 6 6 6 6 6 6 7 7 8 8 9 9 9 9 9 8
6 5 5 4 4 4 3 3 1 1 0 1 2 3 4 5 5 6 5 6 6 6 6 7 7 7 7 6 7 7 7 7 7 7 7 8 9 9 9 9 9 9 9
6 5 5 4 4 4 3 2 1 1 1 1 3 3 4 5 5 6 6 6 6 6 7 7 7 7 7 7 7 7 8 8 8 8 8 8 9 9 10 10 10 9 10
5 5 4 3 4 4 3 2 2 1 1 2 3 3 5 5 6 6 6 7 7 6 7 7 7 8 8 8 8 8 8 8 9 9 9 9 9 10 11 11 10 10 10
6 6 5 4 3 3 3 3 2 1 1 2 3 4 5 6 7 7 7 7 7 7 7 7 7 7 7 8 8 8 8 8 8 9 10 10 10 10 11 11 11 11 10
7 7 6 5 4 4 4 3 2 2 2 3 4 5 6 6 7 7 7 7 7 7 7 6 6 7 7 7 7 8 8 8 9 8 9 10 11 11 11 11 11 12 11
8 8 7 6 4 4 3 3 3 2 2 3 4 5 6 6 7 7 8 8 7 7 7 6 7 6 7 7 8 8 8 8 9 8 9 10 11 11 11 11 12 12 12
9 8 7 6 4 4 4 3 3 2 3 4 5 6 6 7 7 8 8 8 8 7 7 6 6 7 7 8 8 8 8 8 9 9 9 10 11 11 11 11 12 13 12
9 8 7 6 5 5 4 3 3 2 3 4 5 6 6 7 7 8 8 8 8 8 7 6 6 6 7 7 8 8 7 8 8 9 9 10 11 11 11 11 12 13 13
9 9 8 7 6 6 4 3 3 2 3 4 5 5 6 6 7 8 8 8 7 7 7 6 6 6 7 7 8 8 7 8 8 8 9 10 11 11 11 11 12 13 14
8 9 9 8 7 6 5 4 3 3 3 4 4 5 6 6 7 8 8 8 7 7 7 6 6 6 6 7 7 7 7 7 8 8 8 10 10 11 11 11 12 13 14
9 8 8 7 7 6 5 4 3 3 3 4 4 5 6 6 7 7 8 8 7 7 7 7 7 6 6 6 6 7 7 7 8 8 8 9 9 10 10 10 11 12 13
9 8 8 7 7 6 5 3 3 3 4 3 4 5 6 6 7 7 7 7 7 7 6 6 6 5 5 4 5 5 5 6 7 8 8 8 9 9 9 10 11 12 12
9 7 8 7 5 5 4 3 3 4 4 3 4 5 6 6 6 7 7 7 7 7 6 6 5 5 4 3 3 4 4 5 6 7 7 7 8 8 9 9 10 11 12
8 7 7 6 6 5 5 4 3 4 4 3 4 4 5 6 6 7 7 7 7 6 6 6 5 4 3 2 2 2 4 4 5 6 6 6 7 8 8 8 9 10 11
9 7 7 7 7 6 5 5 4 3 3 3 3 4 5 5 6 7 7 7 7 6 6 5 5 4 3 1 1 2 3 4 4 5 6 6 6 7 7 7 8 9 10
9 8 8 7 7 6 5 5 5 4 3 3 3 4 5 5 6 7 7 7 7 6 6 5 5 4 2 1 0 1 2 3 4 4 5 5 6 7 7 7 7 8 9
10 10 8 7 6 6 5 5 4 3 3 2 2 4 5 5 6 6 6 6 6 6 6 6 5 4 3 2 1 1 1 2 3 3 4 4 5 6 6 7 7 7 8
12 11 9 8 7 6 6 5 4 3 3 2 2 3 4 5 5 6 5 6 6 6 6 6 5 5 4 3 2 2 1 1 2 2 3 3 4 5 5 7 7 8 8
11 11 9 8 7 7 6 6 5 4 3 2 2 3 4 4 5 5 5 5 5 5 5 5 5 5 4 3 3 2 1 1 1 1 2 2 3 3 4 5 6 7 8
12 12 10 9 8 8 7 6 5 4 3 2 1 2 3 4 4 5 5 4 4 5 5 5 5 5 5 4 4 3 3 2 1 0 1 1 1 2 3 3 4 5 7
13 12 11 10 9 8 8 6 5 4 3 2 2 2 2 3 4 4 4 4 4 3 4 4 5 5 5 4 4 4 3 3 2 1 1 0 1 2 2 3 4 4 5
13 12 11 10 10 9 8 7 5 5 4 3 2 1 1 2 3 3 4 4 3 3 3 3 4 4 4 4 4 3 3 3 3 2 2 1 1 1 2 3 3 4 4

GEFSSE_500_meanwind_174.txt.gz
Wind_Speed
5 5 5 4 4 3 3 3 4 5 5 5 5 6 5 5 5 5 5 5 5 5 4 3 3 2 2 2 2 2 2 3 5 5 5 6 7 7 6 6 7 6 7
5 5 5 4 4 3 2 2 3 4 4 5 5 5 5 6 6 6 6 5 5 5 4 4 3 3 3 3 3 3 3 3 4 5 5 6 7 7 7 7 7 7 6
6 6 6 5 4 3 2 2 3 3 4 4 5 6 6 6 6 6 6 6 5 5 5 4 4 4 4 4 4 4 4 4 5 5 6 6 7 8 7 8 8 8 7
6 7 7 5 4 3 2 1 2 2 3 4 4 5 5 6 7 7 7 6 6 6 5 5 5 5 4 5 5 5 5 5 5 6 6 7 7 8 8 8 9 9 8
5 6 6 5 4 3 2 1 0 1 2 3 4 5 5 6 6 7 7 6 6 6 6 6 6 6 6 6 5 5 6 6 6 7 7 8 8 8 9 9 9 9 9
6 6 6 5 4 3 2 1 0 1 2 3 4 5 6 6 7 7 7 7 7 7 7 7 6 6 7 6 6 6 6 6 7 7 8 8 8 8 9 9 9 9 10
7 6 6 5 5 4 3 1 0 1 2 3 4 5 6 7 7 8 7 7 7 8 7 7 6 7 6 6 6 7 6 6 7 8 8 9 9 9 9 10 10 10 10
8 7 7 6 4 4 3 2 0 1 2 3 4 4 5 6 7 8 8 8 8 7 7 6 6 6 6 6 7 7 7 7 8 9 9 9 9 9 10 10 10 10 10
9 8 7 6 5 4 3 2 0 1 2 3 4 4 6 7 7 8 8 8 8 7 6 6 7 7 7 7 7 7 7 8 8 9 9 9 9 9 10 10 10 11 11
10 9 8 7 6 5 4 3 1 1 3 3 4 5 6 7 7 8 8 8 8 7 6 6 6 7 7 7 7 7 8 8 8 9 10 10 10 10 10 11 10 11 11
10 10 9 8 7 6 5 3 2 1 2 4 4 5 6 7 8 8 8 8 7 6 6 6 6 6 7 8 8 8 7 8 8 9 10 10 10 10 10 11 11 11 11
10 10 10 9 7 7 5 4 3 2 2 3 4 5 6 7 7 8 8 8 6 6 6 6 6 7 7 8 8 8 7 7 8 8 9 10 11 11 10 11 11 12 12
11 11 10 9 8 7 6 4 3 2 3 4 4 5 6 7 7 8 8 7 6 6 6 6 6 6 7 7 8 7 7 7 8 8 9 10 11 11 11 11 12 12 12
10 10 10 9 9 7 6 5 3 3 3 4 5 5 6 7 7 7 7 6 6 6 6 6 6 6 6 6 7 7 7 7 8 8 9 9 10 10 10 10 11 12 13
11 10 10 9 9 8 6 5 4 4 4 4 4 5 6 7 7 7 6 6 6 6 6 6 6 6 5 6 6 6 7 7 8 8 8 8 9 9 9 10 11 11 12
12 11 10 9 9 8 7 5 4 4 4 4 4 5 6 7 7 6 7 7 7 6 6 6 6 5 4 4 5 5 6 7 7 8 8 8 8 8 8 9 10 11 12
11 11 10 9 9 8 7 5 4 4 4 4 5 6 6 7 6 6 7 7 7 6 6 6 5 5 4 3 3 4 5 6 7 7 7 7 8 8 8 8 10 11 11
11 10 10 8 7 7 6 5 4 4 4 4 6 6 7 7 6 6 6 7 6 6 5 5 4 4 3 2 2 3 4 5 6 6 6 7 7 8 8 8 9 10 11
12 10 9 8 7 7 6 5 5 4 4 4 5 6 6 6 6 6 6 6 6 5 5 4 4 4 3 2 1 2 4 5 5 6 6 6 7 8 8 8 9 10 11
12 10 9 8 8 7 7 6 5 4 4 4 4 5 6 6 6 5 5 6 6 5 5 5 4 4 3 2 1 1 3 4 4 4 5 5 6 6 8 8 8 9 10
13 11 10 9 8 7 7 6 5 4 4 4 4 4 5 5 5 5 5 5 5 5 5 4 4 3 3 2 1 1 2 3 4 4 4 4 5 5 6 8 8 9 9
13 12 11 10 9 7 7 7 6 5 4 3 3 4 4 4 4 4 4 5 4 5 4 4 4 4 3 2 1 0 1 2 3 3 3 3 4 4 5 7 8 8 9
14 13 12 10 10 8 7 7 6 5 4 3 3 3 3 3 4 4 4 4 4 4 4 4 4 4 4 3 2 1 1 2 2 3 3 3 3 3 4 5 7 8 8
15 14 13 11 10 9 8 7 6 6 5 4 3 3 3 3 3 3 3 3 4 4 4 4 4 4 3 3 2 2 1 1 1 2 2 3 3 3 3 4 5 6 8
15 15 13 13 11 10 8 7 7 6 5 5 3 3 2 2 2 3 3 3 3 4 4 4 4 3 3 2 2 2 2 1 0 1 2 2 3 3 4 4 5 6 7
16 15 14 13 11 10 9 8 7 7 6 5 4 3 3 2 2 2 2 2 3 3 4 3 3 3 3 3 2 2 1 1 0 0 1 2 2 3 4 5 5 6 6